| time (UTC) | temp C | wind direction | speed KPH | gust KPH | rain 1hr cm | rain 24hr cm | rain mn cm | humidity % | barometer mb |
| 20260906113024 | 21 | 214 | 0.0 | 0.0 | 0.00 | 0.00 | 0.00 | 93 | 1011.5 |
| 20260906111529 | 21 | 211 | 0.0 | 0.0 | 0.00 | 0.00 | 0.00 | 93 | 1011.4 |
| 20260906110007 | 21 | 211 | 0.0 | 0.0 | 0.00 | 0.00 | 0.00 | 92 | 1011.4 |
| 20260906104521 | 21 | 211 | 0.0 | 0.0 | 0.00 | 0.00 | 0.00 | 92 | 1011.3 |
| 20260906103017 | 22 | 211 | 0.0 | 0.0 | 0.00 | 0.00 | 0.00 | 92 | 1011.0 |
| 20260906101528 | 22 | 211 | 0.0 | 0.0 | 0.00 | 0.00 | 0.00 | 92 | 1010.9 |
| 20260906100028 | 22 | 211 | 0.0 | 0.0 | 0.00 | 0.00 | 0.00 | 92 | 1010.8 |
| 20260906094522 | 22 | 211 | 0.0 | 0.0 | 0.00 | 0.00 | 0.00 | 92 | 1010.8 |
| 20260906093027 | 22 | 211 | 0.0 | 0.0 | 0.00 | 0.00 | 0.00 | 91 | 1010.5 |
| 20260906091523 | 22 | 211 | 0.0 | 0.0 | 0.00 | 0.00 | 0.00 | 91 | 1010.3 |
| 20260906090028 | 22 | 211 | 0.0 | 0.0 | 0.00 | 0.00 | 0.00 | 91 | 1010.3 |
| 20260906084510 | 22 | 211 | 0.0 | 0.0 | 0.00 | 0.00 | 0.00 | 91 | 1010.4 |
| 20260906083017 | 22 | 211 | 0.0 | 0.0 | 0.00 | 0.00 | 0.00 | 90 | 1010.6 |
| 20260906081525 | 22 | 211 | 0.0 | 0.0 | 0.00 | 0.00 | 0.00 | 90 | 1010.4 |
| 20260906080031 | 22 | 211 | 0.0 | 3.2 | 0.00 | 0.00 | 0.00 | 90 | 1010.5 |
| 20260906074533 | 22 | 211 | 0.0 | 0.0 | 0.00 | 0.00 | 0.00 | 89 | 1010.6 |
| 20260906073011 | 22 | 211 | 0.0 | 0.0 | 0.00 | 0.00 | 0.00 | 89 | 1010.8 |
| 20260906071518 | 22 | 211 | 0.0 | 0.0 | 0.00 | 0.00 | 0.00 | 89 | 1011.0 |
| 20260906070025 | 22 | 211 | 0.0 | 0.0 | 0.00 | 0.00 | 0.00 | 88 | 1011.0 |
| 20260906064529 | 22 | 211 | 0.0 | 0.0 | 0.00 | 0.00 | 0.00 | 87 | 1011.2 |
| 20260906063029 | 23 | 211 | 0.0 | 0.0 | 0.00 | 0.00 | 0.00 | 87 | 1011.3 |
| 20260906061514 | 23 | 211 | 0.0 | 0.0 | 0.00 | 0.00 | 0.00 | 86 | 1011.4 |
| 20260906060032 | 23 | 212 | 0.0 | 3.2 | 0.00 | 0.00 | 0.00 | 86 | 1011.4 |
| 20260906054532 | 23 | 265 | 0.0 | 0.0 | 0.00 | 0.00 | 0.00 | 85 | 1011.3 |
| 20260906053030 | 23 | 265 | 0.0 | 3.2 | 0.00 | 0.00 | 0.00 | 84 | 1011.1 |
| 20260906051514 | 23 | 265 | 0.0 | 0.0 | 0.00 | 0.00 | 0.00 | 83 | 1011.4 |
| 20260906050022 | 24 | 265 | 0.0 | 0.0 | 0.00 | 0.00 | 0.00 | 82 | 1011.6 |
| 20260906044526 | 24 | 265 | 0.0 | 3.2 | 0.00 | 0.00 | 0.00 | 81 | 1011.8 |
| 20260906043030 | 25 | 265 | 0.0 | 1.6 | 0.00 | 0.00 | 0.00 | 80 | 1011.9 |
| 20260906041531 | 25 | 88 | 0.0 | 3.2 | 0.00 | 0.00 | 0.00 | 79 | 1012.1 |
| 20260906040019 | 25 | 53 | 0.0 | 3.2 | 0.00 | 0.00 | 0.00 | 79 | 1011.9 |
| 20260906034535 | 26 | 242 | 0.0 | 3.2 | 0.00 | 0.00 | 0.00 | 78 | 1011.8 |
| 20260906033029 | 26 | 250 | 0.0 | 3.2 | 0.00 | 0.00 | 0.00 | 77 | 1012.0 |
| 20260906031531 | 26 | 261 | 0.0 | 3.2 | 0.00 | 0.00 | 0.00 | 77 | 1012.0 |
| 20260906030032 | 26 | 291 | 0.0 | 1.6 | 0.00 | 0.00 | 0.00 | 77 | 1011.9 |
| 20260906024524 | 27 | 71 | 0.0 | 3.2 | 0.00 | 0.00 | 0.00 | 79 | 1011.7 |
| 20260906023027 | 27 | 68 | 0.0 | 3.2 | 0.00 | 0.00 | 0.00 | 80 | 1011.4 |
| 20260906021532 | 27 | 275 | 0.0 | 3.2 | 0.00 | 0.00 | 0.00 | 77 | 1011.1 |
| 20260906020039 | 27 | 340 | 0.0 | 3.2 | 0.00 | 0.00 | 0.00 | 77 | 1011.1 |
| 20260906014534 | 28 | 180 | 1.6 | 3.2 | 0.00 | 0.00 | 0.00 | 72 | 1010.4 |
| 20260906013027 | 28 | 321 | 0.0 | 4.8 | 0.00 | 0.00 | 0.00 | 71 | 1009.9 |
| 20260906011538 | 28 | 159 | 0.0 | 3.2 | 0.00 | 0.00 | 0.00 | 67 | 1009.5 |
| 20260906010034 | 28 | 336 | 0.0 | 3.2 | 0.00 | 0.00 | 0.00 | 67 | 1010.9 |
| 20260906004538 | 29 | 306 | 3.2 | 12.9 | 0.00 | 0.00 | 0.00 | 67 | 1011.5 |
| 20260906003044 | 30 | 295 | 1.6 | 4.8 | 0.00 | 0.00 | 0.00 | 81 | 1011.6 |
| 20260906001530 | 30 | 240 | 1.6 | 4.8 | 0.00 | 0.00 | 0.00 | 80 | 1011.3 |
| 20260906000031 | 30 | 190 | 1.6 | 3.2 | 0.00 | 0.00 | 0.00 | 78 | 1011.5 |
| 20260905234536 | 30 | 271 | 0.0 | 3.2 | 0.00 | 0.00 | 0.00 | 77 | 1011.6 |
| 20260905233033 | 31 | 186 | 0.0 | 3.2 | 0.00 | 0.00 | 0.00 | 76 | 1011.2 |
| 20260905231535 | 31 | 234 | 0.0 | 3.2 | 0.00 | 0.00 | 0.00 | 74 | 1011.4 |
| 20260905230032 | 32 | 159 | 0.0 | 4.8 | 0.00 | 0.00 | 0.00 | 72 | 1011.1 |
| 20260905224534 | 32 | 330 | 1.6 | 9.7 | 0.00 | 0.00 | 0.00 | 69 | 1011.0 |
| 20260905223036 | 33 | 94 | 1.6 | 6.4 | 0.00 | 0.00 | 0.00 | 67 | 1010.9 |
| 20260905221525 | 35 | 133 | 1.6 | 6.4 | 0.00 | 0.00 | 0.00 | 65 | 1010.5 |
| 20260905220027 | 35 | 105 | 1.6 | 4.8 | 0.00 | 0.00 | 0.00 | 55 | 1010.3 |
| 20260905214531 | 36 | 249 | 0.0 | 3.2 | 0.00 | 0.00 | 0.00 | 55 | 1010.3 |
| 20260905213041 | 36 | 269 | 1.6 | 4.8 | 0.00 | 0.00 | 0.00 | 54 | 1010.3 |
| 20260905211540 | 36 | 243 | 0.0 | 3.2 | 0.00 | 0.00 | 0.00 | 52 | 1010.3 |
| 20260905210028 | 37 | 230 | 0.0 | 3.2 | 0.00 | 0.00 | 0.00 | 50 | 1010.2 |
| 20260905204534 | 36 | 215 | 1.6 | 3.2 | 0.00 | 0.00 | 0.00 | 52 | 1010.1 |
| 20260905203035 | 36 | 290 | 0.0 | 3.2 | 0.00 | 0.00 | 0.00 | 54 | 1010.0 |
| 20260905201521 | 36 | 61 | 1.6 | 4.8 | 0.00 | 0.00 | 0.00 | 52 | 1010.1 |
| 20260905200026 | 36 | 91 | 0.0 | 6.4 | 0.00 | 0.00 | 0.00 | 54 | 1010.2 |
| 20260905194541 | 35 | 196 | 0.0 | 3.2 | 0.00 | 0.00 | 0.00 | 58 | 1010.3 |
| 20260905193008 | 36 | 116 | 1.6 | 3.2 | 0.00 | 0.00 | 0.00 | 56 | 1010.6 |
| 20260905191517 | 35 | 38 | 1.6 | 6.4 | 0.00 | 0.00 | 0.00 | 56 | 1010.7 |
| 20260905190026 | 35 | 291 | 1.6 | 8.0 | 0.00 | 0.00 | 0.00 | 58 | 1011.3 |
| 20260905184527 | 35 | 262 | 6.4 | 12.9 | 0.00 | 0.00 | 0.00 | 57 | 1011.6 |
| 20260905183035 | 34 | 270 | 4.8 | 8.0 | 0.00 | 0.00 | 0.00 | 61 | 1011.8 |
| 20260905181519 | 35 | 261 | 3.2 | 4.8 | 0.00 | 0.00 | 0.00 | 60 | 1012.1 |
| 20260905180021 | 34 | 261 | 1.6 | 6.4 | 0.00 | 0.00 | 0.00 | 61 | 1012.3 |
| 20260905174527 | 33 | 321 | 0.0 | 6.4 | 0.00 | 0.00 | 0.00 | 63 | 1012.4 |
| 20260905173033 | 34 | 327 | 1.6 | 9.7 | 0.00 | 0.00 | 0.00 | 62 | 1012.5 |
| 20260905171523 | 34 | 309 | 3.2 | 8.0 | 0.00 | 0.00 | 0.00 | 62 | 1012.9 |
| 20260905170017 | 33 | 345 | 1.6 | 9.7 | 0.00 | 0.00 | 0.00 | 66 | 1012.9 |
| 20260905164527 | 32 | 148 | 1.6 | 4.8 | 0.00 | 0.00 | 0.00 | 66 | 1013.2 |
| 20260905163029 | 32 | 298 | 3.2 | 8.0 | 0.00 | 0.00 | 0.00 | 67 | 1013.5 |
| 20260905161533 | 32 | 48 | 1.6 | 4.8 | 0.00 | 0.00 | 0.00 | 68 | 1013.8 |
| 20260905160034 | 32 | 309 | 0.0 | 4.8 | 0.00 | 0.00 | 0.00 | 70 | 1014.0 |
| 20260905154524 | 32 | 238 | 1.6 | 4.8 | 0.00 | 0.00 | 0.00 | 68 | 1014.2 |
| 20260905153036 | 32 | 286 | 3.2 | 11.3 | 0.00 | 0.00 | 0.00 | 68 | 1014.3 |
| 20260905151534 | 31 | 138 | 1.6 | 6.4 | 0.00 | 0.00 | 0.00 | 68 | 1014.4 |
| 20260905150036 | 31 | 331 | 3.2 | 8.0 | 0.00 | 0.00 | 0.00 | 71 | 1014.3 |
| 20260905144528 | 31 | 190 | 1.6 | 6.4 | 0.00 | 0.00 | 0.00 | 74 | 1014.6 |
| 20260905143035 | 30 | 225 | 1.6 | 6.4 | 0.00 | 0.00 | 0.00 | 75 | 1014.4 |
| 20260905141531 | 30 | 261 | 3.2 | 6.4 | 0.00 | 0.00 | 0.00 | 75 | 1014.4 |
| 20260905140034 | 30 | 234 | 1.6 | 6.4 | 0.00 | 0.00 | 0.00 | 80 | 1014.4 |
| 20260905134520 | 29 | 255 | 0.0 | 4.8 | 0.00 | 0.00 | 0.00 | 82 | 1014.5 |
| 20260905133024 | 28 | 209 | 0.0 | 3.2 | 0.00 | 0.00 | 0.00 | 84 | 1014.6 |
| 20260905131541 | 27 | 254 | 1.6 | 4.8 | 0.00 | 0.00 | 0.00 | 86 | 1014.7 |
| 20260905130033 | 27 | 276 | 0.0 | 4.8 | 0.00 | 0.00 | 0.00 | 90 | 1014.7 |
| 20260905124537 | 26 | 274 | 0.0 | 4.8 | 0.00 | 0.00 | 0.00 | 94 | 1014.5 |
| 20260905123018 | 25 | 282 | 0.0 | 3.2 | 0.00 | 0.00 | 0.00 | 95 | 1014.5 |
| 20260905121529 | 25 | 274 | 0.0 | 1.6 | 0.00 | 0.00 | 0.00 | 95 | 1014.5 |
| 20260905120031 | 24 | 275 | 0.0 | 0.0 | 0.00 | 0.00 | 0.00 | 95 | 1014.5 |
| 20260905114541 | 24 | 275 | 0.0 | 0.0 | 0.00 | 0.00 | 0.00 | 94 | 1014.4 |